Terminal Aerodrome Forecast
Issued by NWS Louisville, KY

Home | Current Version | Previous Version | Text Only | Print | Product List | Glossary On
Versions: 1 2 3 4 5 6 7 8 9 10 11 12 13 14
000
FTUS43 KLMK 041247 AAA
TAFBWG
TAF AMD
KBWG 041247Z 0413/0512 09007KT 5SM BR VCSH SCT005 OVC015
      TEMPO 0413/0415 2SM BR BKN005
     FM042000 21004KT 4SM -RA BR OVC007
     FM050200 29004KT 6SM -DZ BR OVC004
     FM050800 36003KT 3SM BR OVC006=

USA.gov is the U.S. government's official web portal to all federal, state and local government web resources and services.